User: anonymous   Login
Location: Unspecified
(0.0000°N, 0.0000°E)
Time: 16:18:09
(UTC+00:00)
Language:

CP-7 DAVE - Orbit

View from above orbital plane
View from above orbital plane
View from above satellite
View from above satellite

Ground track
Ground track

The orbit data is extracted from the following two-line orbital elements,

1 43615U 18070C   21333.56591553  .00009703  00000-0  21101-3 0  9993
2 43615  93.0258  14.8121 0016321  83.9387 276.3729 15.44171629180113
Epoch (UTC): 29 November 2021 13:34:55
Eccentricity: 0.0016321
inclination: 93.0258°
perigee height: 423 km
apogee height: 445 km
right ascension of ascending node: 14.8121°
argument of perigee: 83.9387°
revolutions per day: 15.44171629
mean anomaly at epoch: 276.3729°
orbit number at epoch: 18011

The dashed part of the orbit path shows where the satellite is in the earth's shadow,  

DLR